Flag for Turkmenistan Weather past 2 weeks in Ashgabat, Turkmenistan

Now
45 °F

Low clouds.


Feels Like: 40 °F
Forecast: 48 / 74 °F
Wind: 8 mph from Northwest

Location: Ashgabat

Current Time: Apr 2, 2015 at 12:17:27 PM

Latest Report: Apr 2, 2015 at 11:30 AM


Visibility: N/A

Pressure: 29.98 "Hg

Humidity: 87%

Dew point: 41 °F

Location of AshgabatLocation

Historic Weather in Ashgabat — Graph

°F

Ashgabat temperature yesterday

Maximum temperature yesterday: 57 °F (at 4:00 PM)
Minimum temperature yesterday: 37 °F (at 12:00 AM)
Average temperature yesterday: 47 °F

Past Weeks' High & Low Weather Summary

 TemperatureHumidityPressure
High75 °F (Mar 21, 4:00 PM)100% (Mar 23, 7:30 AM)30.42 "Hg (Mar 23, 7:30 AM)
Low28 °F (Mar 30, 7:00 AM)25% (Mar 30, 4:00 AM)29.62 "Hg (Mar 23, 5:00 AM)
Average50 °F68%30.11 "Hg
* Reported Mar 18 11:00 AM — Apr 2 11:00 AM, Ashgabat, Weather by CustomWeather, © 2015

Note: Actual official high and low records may vary slightly from our data, if they occured in-between our weather recording intervals... More about our weather records

Advertising

Ashgabat weather history for previous 24 hours

 ConditionsComfort  
Time TempWeatherWind HumidityBarometerVisibility
11:00 AM
Thu, Apr 2
45 °FLow clouds.10 mph87%29.98 "HgN/A
10:30 AM45 °FLow clouds.10 mph93%29.98 "HgN/A
10:00 AM45 °FLow clouds.10 mph93%29.98 "HgN/A
9:30 AM45 °FDrizzle. Low clouds.8 mph93%29.98 "Hg2 mi
9:00 AM43 °FDrizzle. Low clouds.13 mph100%29.98 "Hg3 mi
8:30 AM43 °FDrizzle. Fog.13 mph93%29.98 "Hg2 mi
8:00 AM43 °FDrizzle. Fog.13 mph93%29.98 "Hg2 mi
7:30 AM43 °FDrizzle. Fog.15 mph93%29.95 "Hg3 mi
7:00 AM43 °FDrizzle. Low clouds.10 mph93%29.95 "Hg4 mi
6:30 AM43 °FDrizzle. Low clouds.10 mph93%29.92 "Hg5 mi
6:00 AM43 °FLow clouds.10 mph93%29.92 "Hg6 mi
5:30 AM43 °FLow clouds.8 mph93%29.92 "Hg6 mi
5:00 AM43 °FLow clouds.13 mph93%29.92 "HgN/A
4:30 AM43 °FLow clouds.13 mph93%29.92 "HgN/A
4:00 AM43 °FLow clouds.10 mph100%29.92 "Hg5 mi
3:30 AM43 °FLow clouds.13 mph100%29.92 "Hg4 mi
3:00 AM43 °FLow clouds.13 mph93%29.92 "Hg4 mi
2:00 AM45 °FMostly cloudy.10 mph93%29.92 "HgN/A
1:00 AM46 °FMostly cloudy.6 mph87%29.92 "Hg6 mi
12:00 AM48 °FMostly cloudy.3 mph87%29.92 "Hg4 mi
11:00 PM
Wed, Apr 1
48 °FMostly cloudy.3 mph82%29.95 "Hg6 mi
10:00 PM50 °FPartly cloudy.6 mph76%29.95 "HgN/A
9:00 PM50 °FPartly cloudy.8 mph76%29.95 "HgN/A
8:00 PM52 °FPartly sunny.8 mph72%29.92 "HgN/A
7:00 PM54 °FPartly sunny.10 mph67%29.92 "HgN/A
6:00 PM55 °FPartly sunny.10 mph63%29.92 "HgN/A
5:00 PM57 °FPartly sunny.10 mph59%29.92 "HgN/A
4:00 PM57 °FPartly sunny.10 mph55%29.89 "HgN/A
3:00 PM55 °FPartly sunny.8 mph59%29.92 "HgN/A
2:00 PM54 °FOvercast.8 mph58%29.95 "HgN/A
1:00 PM54 °FPartly sunny.8 mph58%29.95 "HgN/A
12:00 PM54 °FPartly sunny.8 mph58%29.95 "HgN/A
Weather by CustomWeather, © 2015

See weather overviewHow to use our weather pages